Location: Unspecified
(0.0000°N, 0.0000°E)
Time: 18:50:34
(UTC+00:00)

Transit 4A - Pass Details

Date: 22 November 2019
Orbit: 870 x 975 km, 66.8° (Epoch: 06 December)

Event Time Altitude Azimuth Distance (km) Brightness Sun altitude
Rises 18:54:09 0° 186° (S) 3,667 11.4 -15.9°
Reaches altitude 10° 18:56:52 10° 179° (S) 2,720 10.6 -16.6°
Maximum altitude 19:02:50 42° 110° (ESE) 1,362 8.4 -18.0°
Enters shadow 19:05:15 30° 64° (ENE) 1,663 8.6 -18.5°
